This is the latest recevied weather packets stored in our database for station/object N6DZK. If no packets are shown the sender has not sent any weather packets the latest 10 day(s).
| Time | Temp. | Humidity | Pressure | Rain* | Wind** | Luminosity | Snow |
|---|---|---|---|---|---|---|---|
| 1778040680 | 14.44° C | 79% | 1017.2 hPa | 0 mm | - | 0 W/m² | - |
| 1778040378 | 14.44° C | 80% | 1017.4 hPa | 0 mm | - | 0 W/m² | - |
| 1778040074 | 14.44° C | 80% | 1017.4 hPa | 0 mm | - | 0 W/m² | - |
| 1778039771 | 14.44° C | 81% | 1017.5 hPa | 0 mm | - | 0 W/m² | - |
| 1778039468 | 14.44° C | 81% | 1017.3 hPa | 0 mm | - | 0 W/m² | - |
| 1778039165 | 14.44° C | 81% | 1017.1 hPa | 0 mm | - | 0 W/m² | - |
| 1778038862 | 14.44° C | 80% | 1016.9 hPa | 0 mm | - | 0 W/m² | - |
| 1778038559 | 14.44° C | 80% | 1016.8 hPa | 0 mm | - | 0 W/m² | - |
| 1778038256 | 14.44° C | 80% | 1016.8 hPa | 0 mm | - | 0 W/m² | - |
| 1778037954 | 14.44° C | 79% | 1016.7 hPa | 0 mm | - | 0 W/m² | - |
| 1778037650 | 15° C | 79% | 1016.5 hPa | 0 mm | - | 0 W/m² | - |
| 1778037348 | 15° C | 78% | 1016.4 hPa | 0 mm | - | 0 W/m² | - |
| 1778037044 | 15° C | 78% | 1016.5 hPa | 0 mm | - | 1 W/m² | - |
| 1778036743 | 15° C | 78% | 1016.3 hPa | 0 mm | - | 1 W/m² | - |
| 1778036440 | 15° C | 77% | 1016.4 hPa | 0 mm | - | 2 W/m² | - |
| 1778036137 | 15.56° C | 77% | 1016.2 hPa | 0 mm | - | 4 W/m² | - |
| 1778035832 | 15.56° C | 76% | 1016.2 hPa | 0 mm | - | 6 W/m² | - |
| 1778035530 | 15.56° C | 76% | 1016 hPa | 0 mm | - | 10 W/m² | - |
| 1778035226 | 15.56° C | 76% | 1016.1 hPa | 0 mm | - | 13 W/m² | - |
| 1778034922 | 15.56° C | 75% | 1016 hPa | 0 mm | - | 16 W/m² | - |
| 1778034620 | 16.11° C | 75% | 1016.1 hPa | 0 mm | - | 20 W/m² | - |
| 1778034317 | 16.11° C | 74% | 1015.8 hPa | 0 mm | - | 25 W/m² | - |
| 1778034015 | 16.11° C | 74% | 1016.1 hPa | 0 mm | - | 31 W/m² | - |
| 1778033712 | 16.11° C | 74% | 1016 hPa | 0 mm | - | 34 W/m² | - |
| 1778033409 | 16.11° C | 73% | 1016.1 hPa | 0 mm | - | 35 W/m² | - |
* Rain latest hour (hover to see other rain measurements)
** Current wind speed in m/s (hover to see current wind gust speed)